パーカー-ハートレー彗星

119P/Parker-Hartley (2022)

English version
Home page
Updated on May 6, 2023

---------------------------------------------------------------------

・ プロフィール

・ 写真集

・ 軌道要素

Epoch 2022 Aug. 9.0 TT = JDT 2459800.5                                          
T 2022 Aug. 11.97650 TT                                 Rudenko                 
q   2.3274711            (2000.0)            P               Q                  
n   0.13283980     Peri.  322.05789     +0.39176714     -0.91159502             
a   3.8040882      Node   104.56911     +0.87248981     +0.32512281             
e   0.3881658      Incl.    7.39386     +0.29202746     +0.25157440             
P   7.42                                                                        
From 1638 observations 1995 June 23-2021 July 12, mean residual 1".0.           
     Nongravitational parameters A1 = -0.47, A2 = +1.1311.                      

・ 星図

・ 光度変化

        m1 = 7.0 + 5 logΔ + 17.0 log r(t - 80)

---------------------------------------------------------------------

軌道要素はM.P.E.C. 2021-O56に掲載されたものです。
星図はステラナビゲータ Ver.10 (アストロアーツ) で作成したものです。
光度グラフはComet for Windowsで作成したものです。

---------------------------------------------------------------------

Copyright(C) Seiichi Yoshida (comet@aerith.net). All rights reserved.